OBJECT K, 68989

Orbit data source: Space-Track

You're viewing an Uncataloged Satellite

Recently launched and/or uncataloged satellites may have evolving metadata. Metadata may include but not limited to: Owner, Maufacturer, Bus, Motor, and Mission.

OBJECT K, 68989 is a satellite in SSO that was launched on Sun, 03 May 2026 UTC launched from the Air Force Western Test Range (AFWTR). Unknown objects in Earth's orbit typically refer to objects detected orbiting the Earth but have not yet been identified or cataloged. These objects could be anything from previously untracked satellites, spent rocket stages, debris from satellite collisions, or even natural meteoroids temporarily captured by Earth's gravity.

Loading next visibility...
Identifier
68989, 2026-100K
Orbit
SSO
Country
Flag of TBDTBD
Related business
None
Manufacturer
Unknown
Mission
Operational spacecraft
Bus & Motor
Unknown
Mass
Unknown
Launch date (UTC)
2026-05-03 (1 week ago)
Launch vehicle
Unknown
Launch site
Air Force Western Test Range (AFWTR)
Object type
Unknown
Shape & HBR
Unknown
Radar Cross Section
RCS unknown

Expand to show TLE details & history
Last TLE update: 6 hours ago

TLE from 6 hours ago
0 OBJECT K
1 68989U 26100K   26130.17897829  .00001262  00000-0  13418-3 0  9993
2 68989  97.7431  28.3268 0004480 260.1002  99.9711 14.90724020  1038
Epoch: 2026-05-10T04:17Z
TLE epoch observation values (Epoch: 2026-05-10T04:17:43.724Z)
Latitude
0.00003°
Longitude
95.90883°
Altitude
599.26 km
Speed
7.56 km/s
True Right ascension
01h 53m 18s
True Declination
0° 00' 00"
Sunlit
Object was in daylight at epoch
Visualization orbit readout
Latitude
Unknown
Longitude
Unknown
Altitude
Unknown
Speed
Unknown
Apparent Right ascension
Unknown
Apparent Declination
Unknown
Sunlit
N/A
Visualization observer readout
Local Sidereal Time
18:57:26
Azimuth
Unknown
Elevation
Unknown
Doppler factor
Unknown
Orbital elements
Apogee altitude
595.819 km
Perigee altitude
589.573 km
Semi-major axis
6,970.833 km
Eccentricity
0.00045
Inclination
97.7431°
RAAN
28.3268°
Arg. of periapsis
260.1002°
True anomaly
100.02166°
Mean anomaly
99.9711°
Eccentric anomaly
99.99638°
Mean motion
3.7292 °/min
Orbital period
96.54 mins
BSTAR
0.00013418
Loading maneuver chart data...
Computing Atmospheric mass density...
Loading historical data...
Loading historical data...
Loading historical data...
Loading historical data...
Loading historical data...
Loading historical data...
Loading historical data...

Documentation

Showing up to 5 results
|